Time,TemperatureF,DewpointF,PressureIn,WindDirection,WindDirectionDegrees,WindSpeedMPH,WindSpeedGustMPH,Humidity,HourlyPrecipIn,Conditions,Clouds,dailyrainin,SoftwareType,DateUTC
2013-02-18 00:02:00,26.3,18.8,29.98,NNW,327,2.0,4.0,73,0.00,,SKC,0.00,VWS V12.07,2013-02-18 08:02:00,
2013-02-18 00:12:00,26.9,19.1,29.97,NW,325,1.0,5.0,72,0.00,,SKC,0.00,VWS V12.07,2013-02-18 08:12:00,
2013-02-18 00:22:00,26.9,19.1,29.97,NW,325,1.0,5.0,72,0.00,,SKC,0.00,VWS V12.07,2013-02-18 08:22:00,
2013-02-18 00:32:00,26.8,19.0,29.98,NW,325,1.0,3.0,72,0.00,,SKC,0.00,VWS V12.07,2013-02-18 08:32:00,
2013-02-18 00:42:00,27.2,19.4,29.97,NW,325,2.0,3.0,72,0.00,,SKC,0.00,VWS V12.07,2013-02-18 08:42:00,
2013-02-18 00:52:00,26.7,18.6,29.96,NW,325,0.0,5.0,71,0.00,,SKC,0.00,VWS V12.07,2013-02-18 08:52:00,
2013-02-18 01:02:00,27.0,18.9,29.97,NW,325,5.0,5.0,71,0.00,,SKC,0.00,VWS V12.07,2013-02-18 09:02:00,
2013-02-18 01:12:00,26.4,18.6,29.96,NW,317,0.0,5.0,72,0.00,,SKC,0.00,VWS V12.07,2013-02-18 09:12:00,
2013-02-18 01:22:00,26.0,18.2,29.95,NW,316,3.0,5.0,72,0.00,,SKC,0.00,VWS V12.07,2013-02-18 09:22:00,
2013-02-18 01:32:00,25.6,18.2,29.95,WNW,282,3.0,6.0,73,0.00,,SKC,0.00,VWS V12.07,2013-02-18 09:32:00,
2013-02-18 01:42:00,25.7,18.6,29.95,WNW,282,3.0,6.0,74,0.00,,SKC,0.00,VWS V12.07,2013-02-18 09:42:00,
2013-02-18 01:52:00,26.0,18.5,29.95,West,280,3.0,6.0,73,0.00,,SKC,0.00,VWS V12.07,2013-02-18 09:52:00,
2013-02-18 02:02:00,26.6,19.1,29.96,WSW,242,1.0,4.0,73,0.00,,SKC,0.00,VWS V12.07,2013-02-18 10:02:00,
2013-02-18 02:12:00,25.9,18.1,29.95,WSW,242,0.0,4.0,72,0.00,,SKC,0.00,VWS V12.07,2013-02-18 10:12:00,
2013-02-18 02:22:00,25.8,18.4,29.94,WSW,242,1.0,4.0,73,0.00,,SKC,0.00,VWS V12.07,2013-02-18 10:22:00,
2013-02-18 02:32:00,25.8,18.4,29.94,WSW,242,1.0,3.0,73,0.00,,SKC,0.00,VWS V12.07,2013-02-18 10:32:00,
2013-02-18 02:42:00,26.1,18.6,29.93,WSW,242,2.0,3.0,73,0.00,,SKC,0.00,VWS V12.07,2013-02-18 10:42:00,
2013-02-18 02:52:00,26.8,19.3,29.93,WSW,242,3.0,5.0,73,0.00,,SKC,0.00,VWS V12.07,2013-02-18 10:52:00,
2013-02-18 03:02:00,26.9,18.8,29.94,WSW,242,2.0,3.0,71,0.00,,SKC,0.00,VWS V12.07,2013-02-18 11:02:00,
2013-02-18 03:22:00,26.5,18.4,29.93,WSW,242,0.0,3.0,71,0.00,,SKC,0.00,VWS V12.07,2013-02-18 11:22:00,
2013-02-18 03:32:00,26.0,17.9,29.91,WSW,242,2.0,3.0,71,0.00,,SKC,0.00,VWS V12.07,2013-02-18 11:32:00,
2013-02-18 03:42:00,25.7,18.3,29.92,WSW,242,0.0,3.0,73,1.28,,SKC,1.28,VWS V12.07,2013-02-18 11:42:00,
2013-02-18 03:52:00,26.2,18.7,29.91,WSW,242,3.0,5.0,73,1.28,,SKC,1.28,VWS V12.07,2013-02-18 11:52:00,
2013-02-18 04:02:00,27.0,19.5,29.91,WSW,242,3.0,5.0,73,1.28,,SKC,1.28,VWS V12.07,2013-02-18 12:02:00,
2013-02-18 04:12:00,27.1,19.3,29.90,WSW,239,4.0,7.0,72,1.28,,SKC,1.28,VWS V12.07,2013-02-18 12:12:00,
2013-02-18 04:22:00,27.4,19.2,29.91,WSW,237,0.0,7.0,71,1.28,,SKC,1.28,VWS V12.07,2013-02-18 12:22:00,
2013-02-18 04:32:00,27.4,19.2,29.90,WSW,237,0.0,3.0,71,1.28,,SKC,1.28,VWS V12.07,2013-02-18 12:32:00,
2013-02-18 04:42:00,27.3,19.1,29.90,WSW,237,2.0,5.0,71,1.28,,SKC,1.28,VWS V12.07,2013-02-18 12:42:00,
2013-02-18 04:52:00,27.5,19.0,29.89,SW,235,6.0,7.0,70,1.28,,SKC,1.28,VWS V12.07,2013-02-18 12:52:00,
2013-02-18 05:02:00,27.8,19.3,29.89,SW,221,7.0,10.0,70,0.00,,SKC,1.28,VWS V12.07,2013-02-18 13:02:00,
2013-02-18 05:08:00,28.2,19.0,29.89,SW,218,7.0,13.0,68,0.00,,SKC,1.28,VWS V12.07,2013-02-18 13:08:00,
2013-02-18 05:12:00,28.2,19.0,29.89,SW,218,7.0,13.0,68,0.00,,SKC,1.28,VWS V12.07,2013-02-18 13:12:00,